Location: Bidart
(43.4376°N, 1.5913°W)
Time: 04:22:55
(UTC+00:00)

USA 229 DEB - Pass Details

Date: 17 April 2026
Orbit: 844 x 1364 km, 63.4° (Epoch: 10 January)

Event Time Altitude Azimuth Distance (km) Brightness Sun altitude
Rises 23:13:49 0° 323° (NW) 3,890 7.5 -34.5°
Reaches altitude 10° 23:16:55 10° 336° (NNW) 3,018 6.8 -34.7°
Maximum altitude 23:22:54 26° 31° (NNE) 2,181 5.6 -34.9°
Enters shadow 23:28:49 12° 83° (E) 3,147 6.1 -35.2°
